Location: Monte Entu
(40.0333°N, 8.5333°E)
Time: 02:05:29
(UTC+00:00)

CSL-04 Rocket - Pass Details

Date: 09 February 2023
Orbit: 806 x 859 km, 98.8° (Epoch: 23 March)

Event Time Altitude Azimuth Distance (km) Brightness Sun altitude
Exits shadow 18:44:00 41° 58° (ENE) 1,194 4.0 -21.5°
Drops below altitude 10° 18:48:41 10° 1° (N) 2,453 6.1 -22.4°
Sets 18:51:10 0° 354° (N) 3,399 6.9 -22.8°
